Regional Weather Roundup
Issued by NWS Midland/Odessa, TX

Current Version | Previous Version | Text Only | Print | Product List | Glossary On
Versions: 1 2 3 4 5 6 7 8 9 10 11 12 13 14 15 16 17 18 19 20 21 22 23 24 25 26 27 28 29 30 31 32 33 34 35 36 37 38 39 40 41 42 43 44 45 46 47 48 49 50
000
ASUS44 KMAF 270810
RWRMAF
MIDLAND AREA WEATHER ROUNDUP
NATIONAL WEATHER SERVICE MIDLAND TX
300 AM CDT WED JUL 27 2016

...IN SOUTHWEST TEXAS AND SOUTHEAST NEW MEXICO...

CITY           SKY/WX    TMP DP  RH WIND       PRES   REMARKS
ALPINE         MOCLDY    73  62  69 S6        30.15F
ANDREWS        FAIR      71  71 100 CALM      30.05S
ARTESIA        MOCLDY    77  64  65 SE5       30.07S
BIG SPRING     CLEAR     78  68  73 CALM      30.02F
CARLSBAD       MOCLDY    74  67  78 SW5       30.03F
DRYDEN           N/A     72  69  90 N5        29.97
FORT STOCKTON  CLOUDY    75  67  76 S5        30.01S
GUAD PASS      CLOUDY    69  59  70 NE15      30.19F
HOBBS          CLEAR     72  63  73 W6        30.08F
MARFA          CLOUDY    70  60  70 E5        30.14F
MIDLAND AIRPK  CLEAR     76  70  82 SE3       30.03S
MIDLAND INTL   CLEAR     75  69  81 SE7       30.02S
ODESSA         CLEAR     74  68  81 SW3       30.03S
PECOS          MOCLDY    75  63  66 NE6       29.99F
PRESIDIO       FAIR      82  62  49 NE8       29.99F
SEMINOLE       CLEAR     72  64  76 NW5       30.06S
SNYDER           N/A     77  65  66 SE6       29.99S
WINK           MOCLDY    74  69  85 E5        30.00F
$$
...OTHER STATIONS IN TEXAS...

CITY           SKY/WX    TMP DP  RH WIND       PRES   REMARKS
ABILENE        CLEAR     79  68  69 S8        29.97F
AMARILLO       CLEAR     69  63  81 SE8       30.07F
AUSTIN         MOCLDY    75  74  96 CALM      29.92F
BROWNSVILLE    PTCLDY    82  78  88 S10       29.89F
CORPUS CHRISTI CLOUDY    83  79  88 SE7       29.90S
DALLAS FTW     PTCLDY    80  72  76 SE3       29.90F
DEL RIO        CLEAR     74  73  97 E7        29.92F
EL PASO        MOCLDY    81  59  47 VRB5      30.07R
HOUSTON INT    MOCLDY    78  73  84 CALM      29.93S
LUBBOCK        CLEAR     71  61  70 E3        30.04F
SAN ANGELO     CLEAR     76  67  73 S5        29.97F
SAN ANTONIO    MOCLDY    76  73  91 E3        29.94F
WACO           CLEAR     78  72  81 S8        29.92S
WICHITA FALLS  NOT AVBL
$$
...OTHER LOCATIONS IN NEW MEXICO...

CITY           SKY/WX    TMP DP  RH WIND       PRES   REMARKS
ALAMAGORDO     CLOUDY    73  63  68 NW10      30.11S
ALBUQUERQUE    CLOUDY    74  56  53 SE5       30.20F
CANNON AFB     CLEAR     71  66  84 SW2       30.11F
CLOVIS         CLEAR     68  59  73 S5        30.11F
HOLLOMAN AFB   CLOUDY    77  60  55 N9        30.09S
ROSWELL        MOCLDY    74  64  71 S3        30.08S
RUIDOSO        LGT RAIN  59  57  94 SW8       30.36F
SANTA FE       CLOUDY    67  52  58 S3        30.27F
TRUTH OR CONSE CLOUDY    73  59  61 N16G23    30.14S
TUCUMCARI      CLOUDY    73  63  70 SW6       30.08F
$$



USA.gov is the U.S. government's official web portal to all federal, state and local government web resources and services.